{"data":{"norad_id":63955,"intl_designator":"2025-099D","name":"STARLINK-34170","alt_names":[],"object_type":"PAYLOAD","status":"ACTIVE","operator":null,"country":"US","launch_date":"2025-05-13","launch_site_code":"AFETR","launch_vehicle":null,"mission":null,"orbit_class":"UNKNOWN","rcs_meters":null,"size_class":null,"mass_kg":null,"dimensions":null,"purposes":["comms"],"wikipedia_slug":null,"has_3d_model":false,"image_url":null,"decayed_at":null,"tle_current":{"epoch":"2026-09-19T10:30:41.566176Z","epoch_age_seconds":238885,"freshness":"STALE","line1":"1 63955U 25099D   26262.43798109  .00010941  00000+0  40637-3 0  9999","line2":"2 63955  43.0015 162.3787 0002255 268.1022  91.9572 15.27592601 76950","mean_motion":15.27592601,"eccentricity":0.0002255,"inclination_deg":43.0015,"raan_deg":162.3787,"arg_perigee_deg":268.1022,"mean_anomaly_deg":91.9572,"bstar":0.00040637,"rev_number":7695,"period_min":94.265971114114,"perigee_km":481.46417541567,"apogee_km":484.55855332801,"semimajor_km":6861.1483643718,"source":"CELESTRAK","updated_at":"2026-09-21T09:00:35.174272Z"}}}